Location: The Saddle
(36.8333°N, 80.3417°W)
Time: 17:20:40
(UTC-05:00)

Vanguard 2 Rocket - Pass Details

Date: 25 September 2023
Orbit: 553 x 3312 km, 32.9° (Epoch: 04 December)

Event Time Altitude Azimuth Distance (km) Brightness Sun altitude
Rises 19:26:44 0° 284° (WNW) 7,051 13.5 -3.4°
Reaches altitude 10° 19:32:34 10° 276° (W) 5,733 12.9 -4.6°
Maximum altitude 19:45:48 31° 223° (SW) 3,263 10.2 -7.2°
Drops below altitude 10° 19:54:35 10° 165° (SSE) 3,739 9.8 -8.9°
Sets 19:57:31 0° 154° (SSE) 4,374 10.1 -9.5°
